Location: Fuglau
(48.6333°N, 15.5500°E)
Time: 04:55:59
(UTC+00:00)

USA 186 - Pass Details

Date: 27 February 2020
Orbit: 266 x 454 km, 96.9° (Epoch: 31 March)

Event Time Altitude Azimuth Distance (km) Brightness Sun altitude
Exits shadow 19:05:37 21° 296° (WNW) 857 4.1 -25.0°
Drops below altitude 10° 19:07:11 10° 324° (NW) 1,344 5.0 -25.3°
Sets 19:09:25 0° 338° (NNW) 2,241 6.0 -25.6°
